Del Norte, CO

7:39 PM MDT on September 27, 2016 (GMT -0600)
Wolf Creek Pass

Weather History for KCPW - October, 2012

Change the Weather History Date:

Saturday, October 27, 2012

  Actual Average (KALS) Record (KALS)
Temperature  
Mean Temperature 24 °F 39 °F  
Max Temperature 33 °F 57 °F 69 °F (1952)
Min Temperature 14 °F 21 °F 2 °F (2012)
Degree Days  
Heating Degree Days 42 26  
Month to date heating degree days 569  
Since 1 July heating degree days 1000  
Cooling Degree Days 0 0  
Month to date cooling degree days 0  
Year to date cooling degree days 51  
Moisture  
Dew Point -2 °F    
Average Humidity 33    
Maximum Humidity 41    
Minimum Humidity 25    
Precipitation  
Precipitation 0.00 in 0.02 in 0.37 in (1997)
Month to date precipitation 0.60  
Year to date precipitation 6.46  
Snow  
Snow 0.00 in 0.10 in 6.00 in (1996)
Month to date snowfall 1.6  
Since 1 July snowfall 1.6  
Since 1 September snowfall 1.6  
Snow Depth -    
Sea Level Pressure  
Sea Level Pressure 30.25 in    
Wind  
Wind Speed 18 mph (SW)    
Max Wind Speed 29 mph    
Max Gust Speed 33 mph    
Visibility 10 miles    
Events      
T = Trace of Precipitation, MM = Missing Value Source: NWS Daily Summary

Daily Weather History Graph

Daily Weather History Graph

Search for Another Location

Airport or City:

Trip Planner

Search our weather history database for the weather conditions in past years. The results will help you decide how hot, cold, wet, or windy it might be!

Date:

Astronomy

Oct. 27, 2012 Rise Set
Actual Time 7:27 AM MDT 6:13 PM MDT
Civil Twilight 7:00 AM MDT 6:40 PM MDT
Nautical Twilight 6:29 AM MDT 7:11 PM MDT
Astronomical Twilight 5:59 AM MDT 7:41 PM MDT
Moon 5:00 PM MDT (10/27) 5:27 AM MDT (10/27)
Length of Visible Light 11h 40m
Length of Day
10h 46m
Waxing Gibbous, 96% of the Moon is Illuminated
Oct 27
Waxing Gibbous
Oct 29
Full
Nov 6
Last Quarter
Nov 13
New
Nov 20
First Quarter

Hourly Weather History & Observations

Time (MDT) Temp. Windchill Dew Point Humidity Pressure Visibility Wind Dir Wind Speed Gust Speed Precip Events Conditions
12:18 AM 17.6 °F -0.6 °F -9.4 °F 30% 30.25 in 10.0 mi SW 25.3 mph 32.2 mph N/A   Clear
12:38 AM 17.6 °F 0.1 °F -9.4 °F 30% 30.24 in 10.0 mi SW 23.0 mph 33.4 mph N/A   Clear
12:58 AM 17.6 °F 0.5 °F -9.4 °F 30% 30.24 in 10.0 mi SW 21.9 mph 28.8 mph N/A   Clear
1:18 AM 15.8 °F -1.9 °F -9.4 °F 32% 30.24 in 10.0 mi SW 21.9 mph 28.8 mph N/A   Clear
1:38 AM 15.8 °F -3.1 °F -7.6 °F 35% 30.22 in 10.0 mi SW 25.3 mph 29.9 mph N/A   Clear
1:58 AM 15.8 °F 0.9 °F -7.6 °F 35% 30.22 in 10.0 mi SSW 15.0 mph 24.2 mph N/A   Clear
2:38 AM 14.0 °F -4.3 °F -7.6 °F 38% 30.22 in 10.0 mi SW 21.9 mph 26.5 mph N/A   Clear
2:58 AM 15.8 °F -3.4 °F -7.6 °F 35% 30.22 in 10.0 mi SW 26.5 mph 31.1 mph N/A   Clear
3:18 AM 14.0 °F -6.5 °F -7.6 °F 38% 30.21 in 10.0 mi SW 28.8 mph 33.4 mph N/A   Clear
3:38 AM 14.0 °F -6.2 °F -5.8 °F 41% 30.20 in 10.0 mi SW 27.6 mph - N/A   Clear
3:58 AM 14.0 °F -4.7 °F -5.8 °F 41% 30.20 in 10.0 mi SW 23.0 mph - N/A   Clear
4:18 AM 14.0 °F -3.9 °F -5.8 °F 41% 30.22 in 10.0 mi SW 20.7 mph - N/A   Clear
4:38 AM 14.0 °F -3.9 °F -5.8 °F 41% 30.22 in 10.0 mi SW 20.7 mph - N/A   Clear
4:58 AM 14.0 °F -4.3 °F -7.6 °F 38% 30.22 in 10.0 mi SW 21.9 mph - N/A   Clear
5:18 AM 14.0 °F -3.9 °F -7.6 °F 38% 30.22 in 10.0 mi SW 20.7 mph - N/A   Clear
5:58 AM 14.0 °F -2.0 °F -7.6 °F 38% 30.22 in 10.0 mi SW 16.1 mph - N/A   Clear
6:18 AM 14.0 °F -2.5 °F -7.6 °F 38% 30.22 in 10.0 mi SW 17.3 mph - N/A   Clear
6:38 AM 14.0 °F -0.2 °F -7.6 °F 38% 30.22 in 10.0 mi SW 12.7 mph - N/A   Clear
6:58 AM 14.0 °F 2.9 °F -7.6 °F 38% 30.23 in 10.0 mi SW 8.1 mph - N/A   Clear
7:18 AM 14.0 °F -0.8 °F -7.6 °F 38% 30.22 in 10.0 mi SW 13.8 mph - N/A   Clear
7:38 AM 14.0 °F -0.8 °F -7.6 °F 38% 30.22 in 10.0 mi SW 13.8 mph - N/A   Clear
8:18 AM 17.6 °F 7.3 °F -7.6 °F 32% 30.22 in 10.0 mi SW 8.1 mph - N/A   Clear
8:38 AM 17.6 °F 8.2 °F -7.6 °F 32% 30.23 in 10.0 mi SSW 6.9 mph - N/A   Clear
8:58 AM 19.4 °F 10.4 °F -7.6 °F 30% 30.24 in 10.0 mi South 6.9 mph - N/A   Clear
9:38 AM 23.0 °F 13.1 °F -0.4 °F 36% 30.24 in 10.0 mi SW 9.2 mph - N/A   Clear
9:58 AM 23.0 °F 12.4 °F -4.0 °F 31% 30.24 in 10.0 mi SSW 10.4 mph - N/A   Clear
10:18 AM 26.6 °F 15.7 °F -2.2 °F 29% 30.24 in 10.0 mi SSW 12.7 mph 16.1 mph N/A   Clear
10:38 AM 26.6 °F 15.7 °F -0.4 °F 31% 30.24 in 10.0 mi SW 12.7 mph - N/A   Clear
10:58 AM 28.4 °F 18.5 °F 1.4 °F 31% 30.24 in 10.0 mi SW 11.5 mph 17.3 mph N/A   Clear
11:18 AM 28.4 °F 18.5 °F 1.4 °F 31% 30.24 in 10.0 mi SSW 11.5 mph 16.1 mph N/A   Clear
11:38 AM 28.4 °F 17.5 °F 1.4 °F 31% 30.25 in 10.0 mi SW 13.8 mph 18.4 mph N/A   Clear
11:58 AM 28.4 °F 18.0 °F -0.4 °F 29% 30.25 in - SSW 12.7 mph - N/A   Unknown
12:18 PM 28.4 °F 17.0 °F 1.4 °F 31% 30.24 in 10.0 mi SSW 15.0 mph 23.0 mph N/A   Clear
12:38 PM 28.4 °F 18.5 °F 1.4 °F 31% 30.24 in 10.0 mi SW 11.5 mph 19.6 mph N/A   Clear
12:58 PM 30.2 °F 19.8 °F 1.4 °F 29% 30.24 in 10.0 mi SSW 13.8 mph 21.9 mph N/A   Clear
1:18 PM 32.0 °F 21.2 °F 1.4 °F 27% 30.23 in 10.0 mi SSW 16.1 mph 21.9 mph N/A   Clear
1:38 PM 32.0 °F 21.6 °F 1.4 °F 27% 30.22 in 10.0 mi SSW 15.0 mph 23.0 mph N/A   Clear
1:58 PM 32.0 °F 20.8 °F 1.4 °F 27% 30.22 in 10.0 mi SSW 17.3 mph 23.0 mph N/A   Clear
2:18 PM 32.0 °F 24.2 °F 1.4 °F 27% 30.22 in 10.0 mi SSW 9.2 mph 24.2 mph N/A   Clear
2:38 PM 32.0 °F 22.5 °F 1.4 °F 27% 30.22 in 10.0 mi SSW 12.7 mph 21.9 mph N/A   Clear
2:58 PM 33.8 °F 23.5 °F 1.4 °F 25% 30.22 in 10.0 mi SSW 16.1 mph 21.9 mph N/A   Clear
3:18 PM 33.8 °F 23.9 °F 1.4 °F 25% 30.23 in 10.0 mi SSW 15.0 mph 24.2 mph N/A   Clear
3:38 PM 33.8 °F 23.5 °F 1.4 °F 25% 30.24 in 10.0 mi SW 16.1 mph 20.7 mph N/A   Clear
3:58 PM 32.0 °F 22.1 °F 1.4 °F 27% 30.24 in 10.0 mi WSW 13.8 mph - N/A   Clear
4:18 PM 32.0 °F 22.1 °F 1.4 °F 27% 30.24 in 10.0 mi SW 13.8 mph 19.6 mph N/A   Clear
4:38 PM 32.0 °F 21.6 °F 3.2 °F 30% 30.25 in 10.0 mi WSW 15.0 mph 20.7 mph N/A   Clear
4:58 PM 32.0 °F 20.8 °F 3.2 °F 30% 30.25 in 10.0 mi SW 17.3 mph 21.9 mph N/A   Clear
5:18 PM 30.2 °F 18.1 °F 3.2 °F 32% 30.26 in 10.0 mi SW 18.4 mph - N/A   Clear
5:38 PM 30.2 °F 19.3 °F 3.2 °F 32% 30.26 in 10.0 mi SW 15.0 mph 19.6 mph N/A   Clear
5:58 PM 28.4 °F 16.2 °F 3.2 °F 34% 30.26 in 10.0 mi SW 17.3 mph - N/A   Clear
6:18 PM 26.6 °F 14.7 °F 3.2 °F 37% 30.27 in 10.0 mi SW 15.0 mph - N/A   Clear
6:38 PM 26.6 °F 14.3 °F 3.2 °F 37% 30.28 in 10.0 mi SW 16.1 mph - N/A   Clear
6:58 PM 26.6 °F 14.7 °F 3.2 °F 37% 30.29 in 10.0 mi SW 15.0 mph - N/A   Clear
7:18 PM 26.6 °F 15.2 °F 3.2 °F 37% 30.29 in 10.0 mi SW 13.8 mph - N/A   Clear
7:38 PM 24.8 °F 12.9 °F 3.2 °F 40% 30.29 in 10.0 mi SW 13.8 mph - N/A   Clear
7:58 PM 24.8 °F 12.9 °F 1.4 °F 36% 30.29 in 10.0 mi SW 13.8 mph - N/A   Clear
8:18 PM 24.8 °F 12.9 °F 1.4 °F 36% 30.29 in 10.0 mi SSW 13.8 mph - N/A   Clear
8:58 PM 26.6 °F 15.2 °F 3.2 °F 37% 30.30 in 10.0 mi SW 13.8 mph - N/A   Clear
9:18 PM 26.6 °F 16.2 °F 1.4 °F 34% 30.31 in 10.0 mi SW 11.5 mph - N/A   Clear
9:38 PM 26.6 °F 15.2 °F 3.2 °F 37% 30.31 in 10.0 mi SW 13.8 mph - N/A   Clear
9:58 PM 26.6 °F 15.2 °F 1.4 °F 34% 30.32 in 10.0 mi SW 13.8 mph - N/A   Clear
10:18 PM 26.6 °F 17.5 °F 1.4 °F 34% 30.32 in 10.0 mi SSW 9.2 mph 16.1 mph N/A   Clear
10:38 PM 26.6 °F 16.8 °F 1.4 °F 34% 30.32 in 10.0 mi SW 10.4 mph - N/A   Clear
10:58 PM 26.6 °F 19.1 °F 3.2 °F 37% 30.33 in 10.0 mi WSW 6.9 mph 16.1 mph N/A   Clear
11:18 PM 28.4 °F 19.7 °F 5.0 °F 37% 30.33 in 10.0 mi SW 9.2 mph - N/A   Scattered Clouds
11:38 PM 28.4 °F 21.2 °F 3.2 °F 34% 30.33 in 10.0 mi SW 6.9 mph - N/A   Mostly Cloudy